Content
SEND FEEDBACK

Daily
Averages
Monthly
Summary
Mexico

CANCUN, QUINTANA ROO


Home > North America > Mexico > Quintana Roo
Elevation: 9 meters     Latitude: 21 09N     Longitude: 086 49W

WEATHER
 
SELECT A DAY
Number of Records: 163,905;   Date Range: 1/1/95 - 8/10/14
 
SHARE

PRINT THIS DATA

[ ← Previous Day ]
WEATHER ALMANAC - 12 MAY, 2013
[ Next Day → ]
[ °F ]   °C
Weather ElementAverageHighLow
Temperature27.7 °C30 °C (11:42 am)26 °C (2:43 am)
Dewpoint22.4 °C23 °C (1:44 am)22 °C (3:46 am)
Humidity73.4 %83 % (2:43 am)62 % (11:42 am)
Barometer1015.2 hPa1016.9 hPa (10:45 pm)1013.5 hPa (3:46 am)
Wind Speed16.7 km/h29.6 km/h (2:49 pm)
Weather ElementAverage
Visibility11.3 km
Wind DirectionESE (113 °)

Weather ElementTotal
Precipitation---
Cooling Degree Days9.7 (Base 18.3)
Growing Degree Days18 (Base 10)
Averaged from 23 records on 12 May, 2013
WEATHER CONDITIONS BREAKOUT
WIND DIRECTION BREAKOUT
WEATHER BY HOUR - 12 MAY, 2013
[ °F ]   °C
Local TimeTemperatureDewpointHumidityBarometerVisibilityWind DirectionWind SpeedGust SpeedPrecipitationEventsConditions
1:44 AM27 °C23 °C79 %1015.2 hPa11.3 kmESE (110°)18.5 km/hMostly Cloudy
2:43 AM26 °C23 °C83 %1014.6 hPa11.3 kmEast (100°)13 km/hMostly Cloudy
3:46 AM26 °C22 °C78 %1013.5 hPa11.3 kmESE (120°)16.7 km/hMostly Cloudy
4:45 AM26 °C23 °C83 %1014.2 hPa11.3 kmESE (120°)11.1 km/hScattered Clouds
5:44 AM26 °C23 °C83 %1014.2 hPa11.3 kmESE (110°)14.8 km/hPartly Cloudy
6:43 AM26 °C23 °C83 %1014.6 hPa11.3 kmESE (110°)11.1 km/hScattered Clouds
7:40 AM28 °C22 °C70 %1015.6 hPa11.3 kmEast (100°)18.5 km/hMostly Cloudy
8:46 AM28 °C22 °C70 %1015.9 hPa11.3 kmESE (120°)22.2 km/hOvercast
9:45 AM29 °C23 °C70 %1015.9 hPa11.3 kmSE (140°)20.4 km/hMostly Cloudy
10:42 AM29 °C22 °C66 %1015.9 hPa11.3 kmSE (130°)18.5 km/hMostly Cloudy
11:42 AM30 °C22 °C62 %1015.6 hPa11.3 kmSE (130°)27.8 km/hMostly Cloudy
12:40 PM30 °C22 °C62 %1015.6 hPa11.3 kmSSE (150°)18.5 km/hMostly Cloudy
1:42 PM30 °C22 °C62 %1014.9 hPa11.3 kmSE (140°)24.1 km/hMostly Cloudy
2:49 PM30 °C22 °C62 %1014.2 hPa11.3 kmSE (140°)29.6 km/hMostly Cloudy
3:43 PM30 °C23 °C66 %1013.9 hPa11.3 kmSE (130°)29.6 km/hMostly Cloudy
4:44 PM29 °C22 °C66 %1013.9 hPa11.3 kmSE (130°)16.7 km/hMostly Cloudy
5:44 PM28 °C23 °C74 %1013.9 hPa11.3 kmEast (90°)14.8 km/hMostly Cloudy
6:48 PM27 °C23 °C79 %1014.9 hPa11.3 kmESE (120°)14.8 km/hMostly Cloudy
7:45 PM27 °C22 °C74 %1015.2 hPa11.3 kmEast (100°)7.4 km/hScattered Clouds
8:41 PM26 °C22 °C78 %1015.9 hPa11.3 kmENE (60°)5.6 km/hScattered Clouds
9:48 PM26 °C23 °C83 %1016.3 hPa11.3 kmEast (80°)11.1 km/hScattered Clouds
10:45 PM26 °C22 °C78 %1016.9 hPa11.3 kmEast (80°)9.3 km/hScattered Clouds
11:45 PM26 °C22 °C78 %1016.9 hPa11.3 kmEast (90°)9.3 km/hScattered Clouds
Hourly data recorded from MMUN, located 0 kilometers away from Cancun, Quintana Roo







STORIES FROM OUR PARTNERS